Volver al catálogo

STARLINK-11536

ActivoComunicacionesVLEO
NORAD 62563·PAYLOAD·🇺🇸 United States

Lanzado Jan 10, 2025 desde Cape Canaveral Space Force Station

Loading…

Próximos Pases (próximas 24 horas)

TLE

ActualizadoSource: CelesTrak SupGP

Época: Sep 14, 2026, 21:11 UTC

1 62563C 25006K   26257.88312500  .00023575  00000+0  18319-3 0  2577
2 62563  43.0009  79.3582 0001595 282.9688 277.1799 15.70815585    15

Sigue STARLINK-11536 en tiempo real con AllMySat

Download on the App Store